GFSMW_925_spd_300.txt.gz
Wind_Speed
20 26 27 27 27 26 27 28 27 26 24 22 22 19 18 15 14 12 11 10 9 9 10 9 9 8 9 9 11 13 15 15 16 16 14 11 9 8 7 6 6 7 7
18 21 26 28 29 29 28 30 29 30 28 23 21 18 17 15 14 13 12 12 12 11 11 10 9 10 9 12 15 16 15 14 17 7 10 5 6 6 5 6 6 7 6
20 20 24 31 29 29 31 32 32 33 31 27 22 17 16 13 14 14 13 13 12 12 11 11 10 10 9 11 14 15 14 13 14 11 4 4 3 11 6 5 5 5 6
20 20 21 27 30 30 28 28 31 32 30 29 26 24 23 20 17 18 15 14 13 12 10 9 9 10 10 10 12 13 13 11 14 12 6 1 8 4 5 6 5 5 5
22 22 22 28 28 27 31 29 27 28 29 29 25 24 22 18 16 17 16 14 13 11 11 10 9 9 9 10 11 13 13 13 13 14 9 5 3 4 3 6 8 7 5
18 18 23 25 28 29 29 28 32 29 28 29 26 26 23 20 18 20 20 16 13 12 11 10 8 9 9 9 10 12 13 12 12 12 11 9 7 7 5 4 11 9 8
13 14 17 18 24 25 25 28 31 29 28 24 27 26 23 23 23 23 21 19 15 12 12 11 10 9 9 9 9 11 12 13 12 11 10 8 7 5 7 7 11 8 7
4 12 14 19 24 26 25 23 24 23 26 26 24 24 24 22 19 19 18 16 15 13 12 11 11 11 10 10 10 9 10 12 11 9 7 6 4 7 9 10 13 7 7
7 4 4 13 18 21 20 22 23 25 27 28 26 23 22 20 18 20 19 20 21 17 15 13 12 12 11 11 12 10 11 12 11 10 9 8 8 9 9 12 13 8 6
11 8 2 7 13 16 19 20 21 23 23 25 28 27 23 19 18 22 22 23 22 19 18 15 13 13 12 12 12 13 13 14 14 14 13 12 10 11 9 8 6 5 5
13 12 11 8 10 10 10 14 17 17 16 20 19 19 20 21 21 22 22 24 23 20 19 17 15 15 14 14 13 14 16 15 14 14 14 13 12 12 11 10 9 8 7
14 14 14 18 22 12 3 6 11 15 20 21 23 24 25 24 25 25 25 25 24 23 18 18 17 16 15 15 15 16 16 17 16 15 14 14 13 13 11 10 11 9 8
15 15 16 16 17 17 13 4 4 10 17 22 23 23 26 27 29 29 28 27 28 23 20 19 19 18 17 16 16 15 16 16 16 15 14 13 13 12 11 11 11 10 9
15 15 14 14 16 15 12 9 3 3 12 19 21 24 26 27 29 27 32 30 29 27 24 20 19 19 19 18 17 16 16 15 15 14 13 12 11 11 12 11 10 10 9
14 14 14 13 16 16 14 10 5 1 6 12 16 21 25 26 30 28 33 34 28 24 24 22 22 21 21 22 22 20 18 17 15 14 14 12 12 15 13 11 11 10 8
13 13 13 15 17 19 17 13 8 3 5 9 12 14 20 23 25 29 26 28 31 35 29 27 24 23 22 26 27 23 21 19 18 17 15 14 16 15 15 14 13 10 8
12 14 14 15 18 20 21 19 12 6 5 7 8 10 16 21 24 27 28 28 26 22 23 21 21 21 18 25 29 26 22 21 19 17 16 15 13 14 13 12 11 10 10
10 11 13 16 19 20 23 21 16 3 2 3 5 8 10 18 21 23 24 26 26 28 25 23 23 21 19 24 29 25 17 17 17 16 16 15 15 14 14 12 9 7 7
9 11 13 14 17 20 21 21 18 11 5 3 2 5 10 15 22 25 26 25 24 23 23 23 24 23 21 27 31 28 20 18 17 16 14 15 16 18 19 13 11 8 5
9 10 11 12 14 16 16 16 15 13 12 11 7 3 7 13 23 26 26 27 26 26 24 23 22 22 22 30 34 31 21 21 19 18 17 20 16 19 20 13 12 10 9
7 9 8 9 11 13 13 13 14 16 15 12 8 6 6 10 16 24 26 26 25 24 25 23 21 21 23 30 37 37 25 23 22 21 20 18 23 20 20 16 11 10 11
8 9 9 8 9 11 12 12 12 14 15 15 10 7 7 8 11 20 23 23 28 26 27 24 20 21 23 24 37 37 25 23 22 21 20 18 23 21 21 18 14 13 13
12 11 11 11 10 10 11 11 11 13 15 15 14 10 9 9 11 14 19 20 22 20 22 24 24 23 23 24 34 37 36 26 20 18 19 21 24 22 20 20 15 15 11
15 16 14 14 12 12 11 11 11 11 12 14 16 10 10 10 12 13 15 19 20 21 21 22 21 23 25 26 27 37 41 31 26 20 22 23 25 22 17 19 18 14 12
15 17 17 17 17 15 15 13 12 11 11 11 12 11 7 8 13 14 15 19 22 28 27 25 26 25 27 34 36 42 37 34 31 22 20 21 21 20 18 16 17 15 14
17 17 18 19 19 19 18 17 15 13 12 12 11 10 10 9 15 17 21 25 26 27 30 29 27 28 32 31 39 43 39 35 34 28 25 25 25 24 23 21 20 18 17

GFSMW_925_spd_306.txt.gz
Wind_Speed
20 23 29 25 29 35 37 36 28 30 29 24 22 19 23 19 19 18 22 22 15 14 11 13 13 13 12 14 13 14 15 16 17 19 14 10 10 10 9 9 9 8 7
22 20 25 25 26 32 38 36 33 32 31 25 23 21 24 20 19 17 21 20 16 15 14 12 13 12 10 12 15 15 17 18 20 14 14 3 3 4 6 6 7 6 6
26 23 21 24 27 29 36 38 35 33 32 24 26 23 22 21 21 20 21 18 15 14 13 12 12 14 10 13 16 17 19 20 20 21 6 3 3 13 7 7 8 7 6
25 26 25 26 27 30 36 38 38 37 37 32 28 25 21 20 22 20 19 17 17 16 15 15 12 14 13 15 16 17 17 17 19 17 13 3 10 3 3 10 7 6 7
23 29 29 35 34 30 38 39 38 38 36 33 27 24 23 22 23 21 21 19 19 17 15 16 15 15 14 13 15 16 16 15 17 18 12 7 7 8 5 4 8 11 10
28 22 31 42 37 31 34 36 37 36 36 35 28 25 22 23 23 26 26 22 20 17 17 16 15 14 14 13 15 15 19 13 14 14 14 14 12 8 6 4 14 15 13
21 14 22 23 32 38 35 35 34 34 38 35 30 28 31 25 27 30 29 27 23 19 18 17 16 15 13 11 13 14 15 18 11 11 14 14 14 8 12 16 13 10 18
13 28 31 27 32 35 34 33 31 33 33 33 32 26 32 33 20 28 27 27 27 22 21 18 17 14 15 14 14 13 13 14 12 11 7 12 8 5 6 2 23 5 9
10 12 8 11 29 35 33 35 35 29 34 33 31 29 33 35 24 25 27 26 26 26 23 21 19 19 16 15 14 13 14 13 13 11 13 7 8 8 10 9 24 17 4
8 11 13 13 4 28 30 31 36 31 35 33 35 41 38 32 26 31 33 35 31 25 22 20 19 17 19 18 17 16 18 15 14 11 13 11 9 9 10 9 16 16 9
11 11 13 20 23 16 17 27 31 31 25 30 29 27 26 27 25 30 32 35 32 26 26 24 22 20 17 15 16 16 16 19 16 12 13 11 10 10 10 8 7 6 6
9 10 11 17 17 22 16 11 14 15 20 27 29 26 27 28 31 28 26 26 24 24 23 24 23 23 18 15 15 14 14 16 16 16 14 13 12 11 10 8 8 7 6
10 10 11 12 14 15 17 17 16 17 16 17 18 19 25 27 29 29 28 26 26 28 28 26 25 24 24 21 16 11 14 14 14 16 15 13 12 11 11 10 9 10 11
12 11 10 10 13 12 14 16 15 12 13 15 16 19 17 18 21 24 24 24 25 27 27 26 25 26 28 26 25 26 22 18 15 15 15 14 13 13 13 12 12 11 12
14 12 11 9 11 11 11 15 14 11 10 12 13 14 15 15 16 19 22 23 24 28 29 27 27 25 22 21 23 24 27 26 22 21 18 18 18 17 16 15 13 14 12
14 13 12 12 12 14 13 9 12 12 12 10 9 8 9 11 13 14 18 21 27 27 29 29 29 26 21 20 23 22 22 23 22 20 19 19 17 19 18 17 15 16 14
13 13 12 11 14 15 15 14 11 15 15 13 9 7 5 7 11 15 18 23 24 24 26 27 27 25 21 21 23 24 24 22 21 22 21 18 19 20 20 17 18 15 13
12 11 10 13 13 14 16 17 14 13 17 14 9 8 6 6 11 13 17 24 24 26 25 26 25 26 25 23 26 25 24 24 23 24 22 19 20 22 23 19 18 15 14
8 10 12 13 13 14 14 16 17 16 13 12 9 10 8 7 9 13 17 20 23 24 25 23 24 24 23 24 28 28 23 24 23 22 22 21 22 23 23 21 18 16 15
9 8 9 11 12 12 11 13 15 14 13 10 7 10 9 10 10 13 16 19 21 23 24 23 23 23 23 25 28 32 23 24 24 22 20 21 21 22 23 20 20 19 17
7 5 7 9 9 9 9 11 12 12 11 10 8 6 10 10 9 9 12 14 18 20 20 22 21 23 23 27 28 32 25 25 25 25 23 25 22 22 23 22 20 20 17
1 2 3 6 6 5 7 8 9 9 9 10 11 10 5 11 11 7 7 11 16 17 22 18 21 23 23 23 30 30 32 23 25 26 26 25 26 22 22 25 20 20 17
6 6 5 3 3 4 5 5 4 5 7 8 9 9 14 7 12 10 7 9 13 17 18 19 19 21 24 25 24 30 38 23 22 23 24 25 24 26 24 27 23 18 19
6 8 8 8 7 5 4 5 6 3 3 5 7 7 7 9 6 8 6 8 10 14 17 18 18 16 14 21 25 27 34 36 21 17 25 25 24 24 29 30 29 23 21
11 9 9 10 10 11 10 9 6 7 5 4 3 6 5 5 6 3 8 10 10 13 20 21 22 22 22 28 29 27 30 41 33 21 25 27 27 27 30 30 31 28 24
15 14 13 12 13 13 13 13 13 9 9 6 8 6 2 3 3 4 1 4 10 13 14 15 20 23 26 25 31 31 31 33 42 25 27 28 30 29 26 26 29 32 32

GFSMW_925_spd_309.txt.gz
Wind_Speed
19 23 32 37 38 43 44 44 44 40 33 34 32 24 29 27 26 26 26 21 22 18 14 23 22 17 17 17 20 23 25 25 29 26 23 17 12 10 10 8 7 7 5
20 14 29 26 39 44 45 42 46 47 40 37 38 27 32 29 24 29 29 28 21 19 16 18 21 19 19 20 23 27 26 29 30 17 12 2 3 8 11 11 9 5 8
25 20 23 30 36 44 47 45 47 48 46 41 39 27 30 28 23 27 33 28 24 23 17 17 19 16 20 25 24 24 27 28 19 22 7 3 3 5 6 8 7 8 10
26 24 26 29 33 40 43 45 46 47 45 46 43 35 31 24 29 34 32 28 26 24 21 20 20 20 19 22 22 22 25 28 23 22 13 4 13 3 1 5 11 10 9
27 27 27 36 35 41 44 45 43 45 44 45 42 41 32 31 33 34 34 28 26 25 22 23 22 22 19 18 18 22 20 24 25 25 15 11 10 11 5 3 8 11 12
29 29 31 40 30 40 40 39 40 41 42 44 42 39 35 37 36 36 36 31 29 27 26 25 23 22 22 20 18 22 23 18 22 22 21 13 10 9 6 3 4 14 16
25 22 21 19 24 30 37 39 41 39 40 39 36 40 41 41 39 37 36 35 31 29 28 28 26 24 23 20 22 23 24 24 22 18 22 18 16 16 12 10 7 6 9
22 23 20 15 20 25 35 34 38 37 40 41 35 39 40 41 42 40 38 37 35 33 29 27 27 25 25 24 24 23 22 22 18 14 14 18 16 11 9 9 14 3 3
10 15 17 21 18 19 24 29 28 31 36 38 36 32 34 35 39 39 41 39 37 34 32 29 28 27 27 24 22 22 22 24 24 19 18 14 11 12 10 6 24 19 4
16 12 7 2 10 10 9 30 34 32 36 42 40 35 39 37 33 34 36 35 35 35 33 29 27 26 26 24 23 23 23 23 23 23 21 19 14 12 12 9 18 19 13
14 11 9 9 19 12 18 13 19 39 37 39 43 41 38 37 36 36 37 41 38 36 35 31 31 26 26 23 23 23 21 19 19 18 19 18 16 15 14 11 11 19 14
15 10 12 16 15 18 23 32 25 24 23 29 35 34 32 30 30 32 39 41 41 37 33 30 29 29 25 23 23 22 21 19 19 17 16 15 13 14 16 14 12 12 13
14 10 10 12 17 15 15 18 22 25 21 18 16 20 26 22 23 31 33 34 36 33 29 30 31 29 24 23 23 21 21 21 21 20 21 21 20 18 18 15 12 9 11
14 11 8 8 17 15 16 16 14 16 15 26 17 11 24 16 15 25 24 35 34 33 31 32 33 25 23 23 22 21 20 20 19 18 18 19 19 20 18 16 14 12 19
14 12 9 8 10 15 13 13 15 15 16 16 23 24 26 31 29 28 25 32 36 31 31 31 26 25 27 27 24 22 23 22 18 16 15 14 13 12 14 15 16 16 20
15 14 12 11 12 14 15 17 14 16 15 15 14 12 12 14 19 20 21 23 21 25 27 27 27 29 28 25 24 25 23 20 23 25 22 20 17 17 16 14 15 16 19
14 14 12 12 15 17 20 19 21 20 21 18 14 12 10 11 13 16 18 20 23 25 26 27 28 29 28 26 24 22 21 24 23 24 22 19 18 18 18 17 15 16 16
13 11 9 17 24 20 24 25 19 17 19 20 17 13 10 10 12 14 18 20 23 25 28 26 27 28 25 24 22 22 21 23 23 23 21 21 21 20 20 19 18 18 15
9 11 19 20 25 24 26 26 25 17 16 16 14 10 9 9 10 11 14 17 21 21 23 24 25 25 24 21 20 24 24 23 23 22 22 22 20 20 19 20 20 18 16
12 11 17 17 20 22 24 25 24 23 22 10 14 13 11 10 11 10 12 14 17 19 19 21 21 21 19 18 19 24 23 23 21 23 22 21 21 20 22 23 24 23 23
8 12 13 13 13 16 18 20 18 18 19 20 7 10 9 11 10 8 6 8 11 14 16 17 18 19 19 18 20 25 26 23 23 23 23 24 21 19 19 24 25 26 21
13 7 7 11 10 10 13 14 14 13 16 19 22 9 10 8 9 9 6 4 8 12 15 17 15 17 18 18 21 25 27 24 24 25 25 24 22 21 19 23 22 21 20
14 19 15 9 7 8 9 9 7 8 10 13 16 15 7 8 7 9 9 6 8 11 14 16 18 18 17 20 20 22 27 26 21 24 26 25 25 23 21 22 26 22 24
10 11 14 12 12 13 10 4 5 6 4 5 7 10 12 9 7 4 5 7 10 10 13 15 17 19 18 21 23 25 26 31 25 19 22 26 26 26 26 27 27 28 25
9 5 4 2 7 11 13 12 10 7 3 2 2 3 5 6 5 5 6 5 6 6 13 16 16 16 15 20 23 27 26 29 35 31 15 25 26 27 28 28 29 30 27
10 11 9 7 6 7 10 14 16 13 8 4 2 4 2 2 3 3 4 6 6 7 7 6 8 10 15 18 20 22 23 23 27 30 26 23 29 33 33 32 32 32 33

GFSMW_925_spd_312.txt.gz
Wind_Speed
22 33 41 42 40 41 42 42 44 46 46 43 39 39 35 39 37 35 33 29 24 28 30 38 36 37 35 32 28 28 30 29 30 27 20 16 13 12 11 11 8 8 8
19 17 37 41 43 42 44 41 45 46 43 38 37 35 35 39 38 36 33 31 27 27 33 36 36 32 31 32 32 34 31 33 33 16 15 3 4 8 12 11 10 8 8
22 19 25 38 42 43 45 46 45 47 41 38 42 39 32 35 31 37 37 32 30 26 30 32 30 30 32 34 34 37 35 28 25 33 9 3 4 6 10 13 12 11 11
22 24 27 31 41 44 44 46 43 43 38 39 40 39 33 24 23 33 37 35 33 29 30 28 30 29 31 32 35 37 35 36 28 30 9 7 14 3 2 10 13 13 13
24 23 26 38 46 46 45 47 45 43 42 43 37 34 31 29 30 33 36 39 35 33 31 30 28 29 29 32 35 38 36 36 35 30 20 10 13 10 4 3 8 11 16
25 26 32 36 38 41 42 41 43 42 42 45 40 35 31 29 33 36 38 41 37 34 32 32 30 31 32 33 34 34 34 34 33 33 26 21 12 10 6 3 4 12 14
23 24 24 20 27 35 37 36 38 38 40 45 44 41 34 35 39 41 40 40 40 36 33 33 32 32 32 31 30 30 31 32 32 32 30 25 25 15 18 9 5 5 6
23 25 22 19 31 38 40 38 41 37 38 40 37 42 33 32 36 36 34 41 41 38 35 33 33 32 30 30 29 30 31 30 29 28 29 29 25 23 20 16 15 3 3
23 24 21 19 32 34 37 39 36 35 37 37 41 44 40 35 39 39 42 43 40 39 37 36 34 32 30 30 30 29 27 28 28 28 27 22 23 19 18 17 23 15 4
7 10 14 16 25 32 34 33 36 41 46 44 38 40 43 39 40 42 42 43 42 40 38 37 35 32 30 28 27 25 25 27 26 23 19 17 19 18 18 15 19 19 13
9 9 6 12 19 27 29 29 32 29 30 38 44 40 41 40 40 43 42 41 41 42 41 39 37 34 32 28 27 26 25 23 22 18 20 18 16 16 15 15 18 22 14
10 9 7 7 14 15 23 28 30 29 25 21 25 25 38 38 41 42 42 43 43 42 41 38 37 33 32 28 28 25 23 22 22 21 19 17 18 17 14 14 15 22 18
12 11 10 6 7 11 11 15 26 25 20 14 9 23 23 32 32 40 43 43 43 42 41 38 36 32 29 26 24 20 21 22 20 18 18 18 15 13 12 11 12 15 17
14 13 11 9 10 14 13 13 11 15 14 14 15 19 14 15 14 5 17 33 35 40 39 38 34 30 29 28 25 24 23 21 20 18 16 16 16 15 14 14 14 14 16
16 16 14 9 9 13 14 16 13 7 11 17 13 24 23 16 12 21 20 19 28 32 34 30 28 30 31 30 24 22 23 22 19 16 15 15 16 15 15 15 14 15 18
16 17 17 15 8 11 13 16 12 15 15 21 18 18 23 22 28 27 32 26 33 36 37 28 30 34 29 27 22 24 24 20 17 18 18 17 16 16 14 13 12 14 19
14 16 15 14 17 13 17 17 16 16 19 19 19 18 22 24 25 30 31 29 29 35 30 25 26 29 29 22 23 23 21 19 19 19 18 18 17 15 15 13 12 14 15
12 12 13 19 21 22 18 19 18 19 20 17 15 13 13 14 14 18 22 25 26 24 22 24 27 25 24 24 25 23 21 18 17 19 19 19 18 17 16 16 15 14 14
6 11 18 18 22 24 23 27 26 16 12 13 13 11 12 14 14 13 14 15 16 17 21 23 22 22 23 23 22 21 20 18 19 20 20 18 17 17 18 17 18 15 14
12 15 19 23 22 22 23 27 25 28 15 9 12 12 11 12 11 10 10 11 12 15 17 17 19 20 22 22 20 20 20 19 19 20 20 18 17 16 17 18 18 18 18
19 12 16 19 16 19 22 23 25 25 21 9 9 12 13 12 11 12 10 9 11 12 13 14 15 16 19 18 20 19 23 22 20 22 22 21 19 17 16 18 21 21 18
18 20 18 17 17 13 15 15 15 17 22 21 10 9 11 13 12 10 9 8 7 8 9 10 11 14 15 15 17 20 23 23 23 24 22 20 19 19 17 18 18 19 17
13 13 15 18 20 20 14 14 11 11 14 18 17 8 9 10 11 11 10 8 6 5 5 7 9 10 12 13 15 17 22 21 20 19 20 19 19 19 18 18 17 17 19
11 8 8 4 11 15 18 21 21 13 9 12 14 13 9 8 6 6 6 6 6 4 2 1 4 7 9 10 13 16 18 22 21 17 18 18 20 20 22 21 21 20 22
6 4 7 6 3 1 9 12 17 18 16 9 9 8 8 7 6 4 3 4 4 2 2 2 3 6 9 12 14 16 19 21 23 21 14 17 20 22 25 25 25 24 25
1 5 8 6 2 1 2 5 8 11 13 10 9 8 6 6 3 3 3 3 3 3 2 1 3 3 6 8 9 11 12 15 19 19 24 25 21 25 29 29 27 27 28